Location: Unspecified
(43.4680°N, 87.1740°E)
Time: 18:44:43
(UTC+00:00)

CSL-04 Rocket - Pass Details

Date: 17 January 2020
Orbit: 806 x 860 km, 99.0° (Epoch: 15 February)

Event Time Altitude Azimuth Distance (km) Brightness Sun altitude
Rises 12:16:06 0° 149° (SSE) 3,373 6.7 -13.2°
Reaches altitude 10° 12:18:29 10° 145° (SE) 2,450 5.9 -13.6°
Maximum altitude 12:23:45 53° 70° (ENE) 1,036 3.8 -14.6°
Drops below altitude 10° 12:29:07 10° 355° (N) 2,495 6.1 -15.5°
Sets 12:31:33 0° 351° (N) 3,440 6.8 -15.9°
